Location: Newark
(40.7066°N, 111.8219°W)
Time: 00:58:04
(UTC+00:00)

deb Explorer IX - Pass Details

Date: 23 November 2019
Orbit: 545 x 1105 km, 38.8° (Epoch: 05 December)

Event Time Altitude Azimuth Distance (km) Brightness Sun altitude
Exits shadow 12:52:23 14° 232° (SW) 1,944 ? -17.0°
Maximum altitude 12:53:23 15° 219° (SW) 1,870 ? -16.8°
Drops below altitude 10° 12:56:10 10° 184° (S) 2,102 ? -16.3°
Sets 12:59:17 0° 161° (SSE) 2,909 ? -15.7°
